Back to Previous

Regional Weather Roundup

651 
ASUS44 KLZK 301205
RWRLZK

WEATHER ROUNDUP FOR ARKANSAS
NATIONAL WEATHER SERVICE LITTLE ROCK AR
700 AM CDT THU OCT 30 2014

NOTE: "FAIR" INDICATES FEW OR NO CLOUDS BELOW 12,000 FEET WITH NO
SIGNIFICANT WEATHER AND/OR OBSTRUCTIONS TO VISIBILITY.

ARZ001-003-010-029-301300-
NORTHWEST ARKANSAS
  
CITY           SKY/WX    TMP DP  RH WIND       PRES   REMARKS
FAYETTEVILLE   CLEAR     37  37 100 CALM      30.13F                  
6HR MIN TEMP:  36; 6HR MAX TEMP:  41;                                

FORT SMITH     CLEAR     45  42  89 E5        30.14S                  
6HR MIN TEMP:  44; 6HR MAX TEMP:  50;                                

HARRISON       CLEAR     40  38  93 SE3       30.13S                  
6HR MIN TEMP:  39; 6HR MAX TEMP:  45;                                

BENTONVILLE    CLEAR     43  37  81 S3        30.12S                  
6HR MIN TEMP:  39; 6HR MAX TEMP:  45;                                

ROGERS         CLEAR     45  38  76 S6        30.13R                  
6HR MIN TEMP:  44; 6HR MAX TEMP:  48;                                

SILOAM SPGS    CLEAR     39  32  75 CALM      30.13S                  
6HR MIN TEMP:  39; 6HR MAX TEMP:  45;                                

HIGHFILL       CLEAR     40  37  89 SW3       30.12R                  
6HR MIN TEMP:  39; 6HR MAX TEMP:  44;                                

SPRINGDALE     CLEAR     43  37  81 CALM      30.14F                  
$$

ARZ004-005-016-301300-
NORTH CENTRAL ARKANSAS
  
CITY           SKY/WX    TMP DP  RH WIND       PRES   REMARKS
BATESVILLE     CLEAR     39  37  93 CALM      30.16S                  
6HR MIN TEMP:  39; 6HR MAX TEMP:  46;                                

FLIPPIN        CLEAR     36  30  80 CALM      30.15F                  
6HR MIN TEMP:  36; 6HR MAX TEMP:  41;                                

MTN HOME       CLEAR     38  37  97 CALM      30.14S                  
6HR MIN TEMP:  38; 6HR MAX TEMP:  45;                                

$$

ARZ040-041-301300-
WEST CENTRAL ARKANSAS
  
CITY           SKY/WX    TMP DP  RH WIND       PRES   REMARKS
MENA             N/A     41  39  93 CALM        N/A                   
MOUNT IDA      CLEAR     39  38  96 CALM      30.13S                  
6HR MIN TEMP:  39; 6HR MAX TEMP:  44;                                

$$

ARZ009-017-025-026-028-301300-
NORTHEAST ARKANSAS
  
CITY           SKY/WX    TMP DP  RH WIND       PRES   REMARKS
CORNING        FAIR      39  36  87 N5        30.18R                  
JONESBORO      CLEAR     43  38  82 CALM      30.17R                  
6HR MIN TEMP:  42; 6HR MAX TEMP:  48;                                

NEWPORT        CLEAR     40  38  93 N5        30.18S                  
6HR MIN TEMP:  40; 6HR MAX TEMP:  48;                                

WALNUT RIDGE   CLEAR     39  34  81 N3        30.16S                  
6HR MIN TEMP:  39; 6HR MAX TEMP:  46;                                

BLYTHEVILLE    CLEAR     42  38  85 E3        30.17S                  
6HR MIN TEMP:  41; 6HR MAX TEMP:  45;                                

$$

ARZ022-023-033-042-044-301300-
CENTRAL ARKANSAS
  
CITY           SKY/WX    TMP DP  RH WIND       PRES   REMARKS
LITTLE ROCK    CLEAR     47  43  86 W3        30.18R                  
6HR MIN TEMP:  46; 6HR MAX TEMP:  50;                                

N LITTLE ROCK    N/A     48  47  97 CALM      30.18R                  
6HR MIN TEMP:  48; 6HR MAX TEMP:  55;                                

JACKSONVILLE   CLEAR     40  38  94 CALM      30.17R                  
6HR MIN TEMP:  40; 6HR MAX TEMP:  47;                                

SEARCY         CLEAR     41  40  96 CALM      30.18R                  
6HR MIN TEMP:  41; 6HR MAX TEMP:  45;                                

HOT SPRINGS    MOCLDY    42  41  96 CALM      30.17R FOG              
6HR MIN TEMP:  43; 6HR MAX TEMP:  47; 6HR PCP: TRACE;                

RUSSELLVILLE   CLEAR     41  39  93 CALM      30.16R                  
6HR MIN TEMP:  41; 6HR MAX TEMP:  46;                                

$$

ARZ036-301300-
EAST ARKANSAS
  
CITY           SKY/WX    TMP DP  RH WIND       PRES   REMARKS
WEST MEMPHIS   CLEAR     41  41 100 CALM      30.15S                  
6HR MIN TEMP:  41; 6HR MAX TEMP:  47;                                

$$

ARZ050-053-066-070-073-301300-
SOUTHWEST ARKANSAS
  
CITY           SKY/WX    TMP DP  RH WIND       PRES   REMARKS
ARKADELPHIA    FOG       43  43 100 CALM      30.17S VSB<1/4          
6HR MIN TEMP:  43; 6HR MAX TEMP:  47;                                

CAMDEN         FOG       41  39  93 CALM      30.17R VSB 1            
TEXARKANA      CLEAR     47  46  97 CALM      30.15S                  
6HR MIN TEMP:  44; 6HR MAX TEMP:  51;                                

EL DORADO      CLEAR     42  40  92 CALM      30.16S                  
6HR MIN TEMP:  42; 6HR MAX TEMP:  47;                                

DE QUEEN       FOG       40  40 100 CALM      30.14R VSB 1/4          
6HR MIN TEMP:  40; 6HR MAX TEMP:  45;                                

$$

ARZ056-057-069-301300-
SOUTHEAST ARKANSAS
  
CITY           SKY/WX    TMP DP  RH WIND       PRES   REMARKS
PINE BLUFF     CLEAR     45  43  93 CALM      30.17R                  
6HR MIN TEMP:  44; 6HR MAX TEMP:  50;                                

STUTTGART      CLEAR     46  43  87 N3        30.16R                  
6HR MIN TEMP:  45; 6HR MAX TEMP:  52;                                

MONTICELLO     CLEAR     44  43  96 CALM      30.15S                  
6HR MIN TEMP:  44; 6HR MAX TEMP:  48;                                


$$




USA.gov is the U.S. government's official web portal to all federal, state and local government web resources and services.